Time,TemperatureF,DewpointF,PressureIn,WindDirection,WindDirectionDegrees,WindSpeedMPH,WindSpeedGustMPH,Humidity,HourlyPrecipIn,Conditions,Clouds,dailyrainin,SoftwareType,DateUTC
2013-04-28 00:01:00,56.7,54.4,30.22,East,96,0.0,18.0,92,0.00,,---,0.00,VWS V13.01,2013-04-28 04:01:00,
2013-04-28 00:06:00,56.7,54.4,30.22,East,96,0.0,18.0,92,0.00,,---,0.00,VWS V13.01,2013-04-28 04:06:00,
2013-04-28 00:11:00,56.6,54.3,30.21,East,96,0.0,18.0,92,0.00,,---,0.00,VWS V13.01,2013-04-28 04:11:00,
2013-04-28 00:16:00,56.6,54.3,30.21,East,96,0.0,18.0,92,0.00,,---,0.00,VWS V13.01,2013-04-28 04:16:00,
2013-04-28 00:21:00,56.6,54.3,30.21,East,96,0.0,18.0,92,0.00,,---,0.00,VWS V13.01,2013-04-28 04:21:00,
2013-04-28 00:26:00,56.5,54.2,30.21,East,96,0.0,18.0,92,0.00,,---,0.00,VWS V13.01,2013-04-28 04:26:00,
2013-04-28 00:31:00,56.6,54.6,30.21,East,96,0.0,18.0,93,0.00,,---,0.00,VWS V13.01,2013-04-28 04:31:00,
2013-04-28 00:36:00,56.6,54.6,30.21,East,96,0.0,18.0,93,0.00,,---,0.00,VWS V13.01,2013-04-28 04:36:00,
2013-04-28 00:41:00,56.5,54.5,30.21,East,96,0.0,18.0,93,0.00,,---,0.00,VWS V13.01,2013-04-28 04:41:00,
2013-04-28 00:46:00,56.5,54.5,30.21,East,96,0.0,18.0,93,0.00,,---,0.00,VWS V13.01,2013-04-28 04:46:00,
2013-04-28 00:51:00,56.5,54.2,30.21,East,96,0.0,18.0,92,0.00,,---,0.00,VWS V13.01,2013-04-28 04:51:00,
2013-04-28 00:56:00,56.5,54.2,30.21,East,96,0.0,18.0,92,0.00,,---,0.00,VWS V13.01,2013-04-28 04:56:00,
2013-04-28 01:01:00,56.4,54.1,30.21,East,96,0.0,18.0,92,0.00,,---,0.00,VWS V13.01,2013-04-28 05:01:00,
2013-04-28 01:06:00,56.4,54.1,30.21,East,96,0.0,18.0,92,0.00,,---,0.00,VWS V13.01,2013-04-28 05:06:00,
2013-04-28 01:11:00,56.3,54.3,30.21,East,96,0.0,18.0,93,0.00,,---,0.00,VWS V13.01,2013-04-28 05:11:00,
2013-04-28 01:16:00,56.3,54.3,30.21,East,96,0.0,18.0,93,0.00,,---,0.00,VWS V13.01,2013-04-28 05:16:00,
2013-04-28 01:21:00,56.2,54.2,30.21,East,96,0.0,18.0,93,0.00,,---,0.00,VWS V13.01,2013-04-28 05:21:00,
2013-04-28 01:26:00,56.2,54.2,30.21,East,96,0.0,18.0,93,0.00,,---,0.00,VWS V13.01,2013-04-28 05:26:00,
2013-04-28 01:31:00,56.2,54.2,30.21,East,96,0.0,18.0,93,0.00,,---,0.00,VWS V13.01,2013-04-28 05:31:00,
2013-04-28 01:36:00,56.2,54.2,30.21,East,96,0.0,18.0,93,0.00,,---,0.00,VWS V13.01,2013-04-28 05:36:00,
2013-04-28 01:41:00,56.1,54.1,30.21,East,96,0.0,18.0,93,0.00,,---,0.00,VWS V13.01,2013-04-28 05:41:00,
2013-04-28 01:46:00,56.0,54.0,30.21,East,96,0.0,18.0,93,0.00,,---,0.00,VWS V13.01,2013-04-28 05:46:00,
2013-04-28 01:51:00,56.0,54.0,30.21,East,96,0.0,18.0,93,0.00,,---,0.00,VWS V13.01,2013-04-28 05:51:00,
2013-04-28 01:56:00,55.9,53.9,30.21,East,96,0.0,18.0,93,0.00,,---,0.00,VWS V13.01,2013-04-28 05:56:00,
2013-04-28 02:01:00,55.9,53.9,30.21,East,96,0.0,18.0,93,0.00,,---,0.00,VWS V13.01,2013-04-28 06:01:00,
2013-04-28 02:06:00,55.9,53.9,30.21,East,96,0.0,18.0,93,0.00,,---,0.00,VWS V13.01,2013-04-28 06:06:00,
2013-04-28 02:11:00,55.9,53.9,30.21,East,96,0.0,18.0,93,0.00,,---,0.00,VWS V13.01,2013-04-28 06:11:00,
2013-04-28 02:16:00,55.9,53.9,30.21,East,96,0.0,18.0,93,0.00,,---,0.00,VWS V13.01,2013-04-28 06:16:00,
2013-04-28 02:21:00,55.9,53.9,30.21,East,96,0.0,18.0,93,0.00,,---,0.00,VWS V13.01,2013-04-28 06:21:00,
2013-04-28 02:26:00,55.9,53.9,30.19,East,96,0.0,18.0,93,0.00,,---,0.00,VWS V13.01,2013-04-28 06:26:00,
2013-04-28 02:31:00,55.8,53.8,30.19,East,96,0.0,18.0,93,0.00,,---,0.00,VWS V13.01,2013-04-28 06:31:00,
2013-04-28 02:36:00,55.8,53.8,30.19,East,96,0.0,18.0,93,0.00,,---,0.00,VWS V13.01,2013-04-28 06:36:00,
2013-04-28 02:41:00,55.7,53.7,30.19,East,96,0.0,18.0,93,0.00,,---,0.00,VWS V13.01,2013-04-28 06:41:00,
2013-04-28 02:46:00,55.7,53.7,30.19,East,96,0.0,18.0,93,0.00,,---,0.00,VWS V13.01,2013-04-28 06:46:00,
2013-04-28 02:51:00,55.7,53.7,30.19,East,96,0.0,18.0,93,0.00,,---,0.00,VWS V13.01,2013-04-28 06:51:00,
2013-04-28 02:56:00,55.6,53.6,30.19,East,96,0.0,18.0,93,0.00,,---,0.00,VWS V13.01,2013-04-28 06:56:00,
2013-04-28 03:01:00,55.6,53.6,30.19,East,96,0.0,18.0,93,0.00,,---,0.00,VWS V13.01,2013-04-28 07:01:00,
2013-04-28 03:06:00,55.6,53.6,30.19,East,96,0.0,18.0,93,0.00,,---,0.00,VWS V13.01,2013-04-28 07:06:00,
2013-04-28 03:11:00,55.5,53.5,30.18,East,96,0.0,18.0,93,0.00,,---,0.00,VWS V13.01,2013-04-28 07:11:00,
2013-04-28 03:16:00,55.4,53.4,30.18,East,96,0.0,18.0,93,0.00,,---,0.00,VWS V13.01,2013-04-28 07:16:00,
2013-04-28 03:21:00,55.4,53.4,30.18,East,96,0.0,18.0,93,0.00,,---,0.00,VWS V13.01,2013-04-28 07:21:00,
2013-04-28 03:26:00,55.4,53.4,30.18,East,96,0.0,18.0,93,0.00,,---,0.00,VWS V13.01,2013-04-28 07:26:00,
2013-04-28 03:31:00,55.3,53.3,30.18,East,96,0.0,18.0,93,0.00,,---,0.00,VWS V13.01,2013-04-28 07:31:00,
2013-04-28 03:36:00,55.2,53.2,30.18,East,96,0.0,18.0,93,0.00,,---,0.00,VWS V13.01,2013-04-28 07:36:00,
2013-04-28 03:41:00,55.1,53.1,30.18,East,96,0.0,18.0,93,0.00,,---,0.00,VWS V13.01,2013-04-28 07:41:00,
2013-04-28 03:46:00,54.9,52.9,30.18,East,96,0.0,18.0,93,0.00,,---,0.00,VWS V13.01,2013-04-28 07:46:00,
2013-04-28 03:51:00,54.8,52.8,30.18,East,96,0.0,18.0,93,0.00,,---,0.00,VWS V13.01,2013-04-28 07:51:00,
2013-04-28 03:56:00,54.7,52.7,30.18,East,96,0.0,18.0,93,0.00,,---,0.00,VWS V13.01,2013-04-28 07:56:00,
2013-04-28 04:01:00,54.7,53.0,30.18,East,97,0.0,18.0,94,0.00,,---,0.00,VWS V13.01,2013-04-28 08:01:00,
2013-04-28 04:06:00,54.7,53.0,30.18,East,96,0.0,18.0,94,0.00,,---,0.00,VWS V13.01,2013-04-28 08:06:00,
2013-04-28 04:11:00,54.6,52.9,30.18,East,96,0.0,18.0,94,0.00,,---,0.00,VWS V13.01,2013-04-28 08:11:00,
2013-04-28 04:16:00,54.5,52.5,30.18,East,96,0.0,18.0,93,0.00,,---,0.00,VWS V13.01,2013-04-28 08:16:00,
2013-04-28 04:21:00,54.5,52.5,30.18,East,96,0.0,18.0,93,0.00,,---,0.00,VWS V13.01,2013-04-28 08:21:00,
2013-04-28 04:26:00,54.5,52.5,30.18,East,96,0.0,18.0,93,0.00,,---,0.00,VWS V13.01,2013-04-28 08:26:00,
2013-04-28 04:31:00,54.4,52.4,30.18,East,96,0.0,18.0,93,0.00,,---,0.00,VWS V13.01,2013-04-28 08:31:00,
2013-04-28 04:36:00,54.4,52.4,30.18,East,96,0.0,18.0,93,0.00,,---,0.00,VWS V13.01,2013-04-28 08:36:00,
2013-04-28 04:41:00,54.5,52.5,30.18,East,96,0.0,18.0,93,0.00,,---,0.00,VWS V13.01,2013-04-28 08:41:00,
2013-04-28 04:45:00,54.5,52.5,30.18,East,96,0.0,18.0,93,0.00,,---,0.00,VWS V13.01,2013-04-28 08:45:00,
2013-04-28 04:50:00,54.5,52.5,30.18,East,96,0.0,18.0,93,0.00,,---,0.00,VWS V13.01,2013-04-28 08:50:00,
2013-04-28 04:55:00,54.5,52.5,30.18,East,96,0.0,18.0,93,0.00,,---,0.00,VWS V13.01,2013-04-28 08:55:00,
2013-04-28 05:01:00,54.5,52.5,30.18,East,96,0.0,18.0,93,0.00,,---,0.00,VWS V13.01,2013-04-28 09:01:00,
2013-04-28 05:06:00,54.6,52.3,30.18,East,96,0.0,18.0,92,0.00,,---,0.00,VWS V13.01,2013-04-28 09:06:00,
2013-04-28 05:11:00,54.6,52.3,30.18,East,96,0.0,18.0,92,0.00,,---,0.00,VWS V13.01,2013-04-28 09:11:00,
2013-04-28 05:16:00,54.7,52.4,30.18,East,96,0.0,18.0,92,0.00,,---,0.00,VWS V13.01,2013-04-28 09:16:00,
2013-04-28 05:21:00,54.8,52.5,30.18,East,96,0.0,18.0,92,0.00,,---,0.00,VWS V13.01,2013-04-28 09:21:00,
2013-04-28 05:26:00,54.8,52.2,30.19,ENE,69,0.0,18.0,91,0.00,,---,0.00,VWS V13.01,2013-04-28 09:26:00,
2013-04-28 05:31:00,54.9,52.3,30.19,ENE,68,0.0,18.0,91,0.00,,---,0.00,VWS V13.01,2013-04-28 09:31:00,
2013-04-28 05:36:00,55.0,52.4,30.19,ENE,68,0.0,18.0,91,0.00,,---,0.00,VWS V13.01,2013-04-28 09:36:00,
2013-04-28 05:41:00,55.0,51.8,30.19,ENE,68,0.0,18.0,89,0.00,,---,0.00,VWS V13.01,2013-04-28 09:41:00,
2013-04-28 05:46:00,55.0,52.1,30.19,ENE,68,0.0,18.0,90,0.00,,---,0.00,VWS V13.01,2013-04-28 09:46:00,
2013-04-28 05:51:00,55.0,51.8,30.19,ENE,68,0.0,18.0,89,0.00,,---,0.00,VWS V13.01,2013-04-28 09:51:00,
2013-04-28 05:56:00,55.0,51.8,30.19,ENE,68,0.0,18.0,89,0.00,,---,0.00,VWS V13.01,2013-04-28 09:56:00,
2013-04-28 06:01:00,55.0,51.5,30.19,ENE,68,0.0,18.0,88,0.00,,---,0.00,VWS V13.01,2013-04-28 10:01:00,
2013-04-28 06:05:00,55.0,51.5,30.19,ENE,68,0.0,18.0,88,0.00,,---,0.00,VWS V13.01,2013-04-28 10:05:00,
2013-04-28 06:10:00,55.0,51.5,30.19,ENE,68,0.0,18.0,88,0.00,,---,0.00,VWS V13.01,2013-04-28 10:10:00,
2013-04-28 06:15:00,54.9,51.4,30.19,ENE,68,0.0,18.0,88,0.00,,---,0.00,VWS V13.01,2013-04-28 10:15:00,
2013-04-28 06:20:00,54.7,51.2,30.19,ENE,68,0.0,18.0,88,0.00,,---,0.00,VWS V13.01,2013-04-28 10:20:00,
2013-04-28 06:25:00,54.6,51.1,30.19,ENE,68,0.0,18.0,88,0.00,,---,0.00,VWS V13.01,2013-04-28 10:25:00,
2013-04-28 06:30:00,54.5,51.0,30.19,ENE,68,0.0,18.0,88,0.00,,---,0.00,VWS V13.01,2013-04-28 10:30:00,
2013-04-28 06:35:00,54.3,50.8,30.19,ENE,68,0.0,18.0,88,0.00,,---,0.00,VWS V13.01,2013-04-28 10:35:00,
2013-04-28 06:40:00,54.2,51.0,30.20,ENE,68,0.0,18.0,89,0.00,,---,0.00,VWS V13.01,2013-04-28 10:40:00,
2013-04-28 06:45:00,54.1,50.9,30.20,ENE,68,0.0,18.0,89,0.00,,---,0.00,VWS V13.01,2013-04-28 10:45:00,
2013-04-28 06:50:00,54.1,50.9,30.20,ENE,68,0.0,18.0,89,0.00,,---,0.00,VWS V13.01,2013-04-28 10:50:00,
2013-04-28 06:55:00,54.1,50.9,30.19,ENE,68,0.0,18.0,89,0.00,,---,0.00,VWS V13.01,2013-04-28 10:55:00,
2013-04-28 07:00:00,54.1,50.9,30.19,ENE,68,0.0,18.0,89,0.00,,---,0.00,VWS V13.01,2013-04-28 11:00:00,
2013-04-28 07:05:00,54.0,51.1,30.19,ENE,68,0.0,18.0,90,0.00,,---,0.00,VWS V13.01,2013-04-28 11:05:00,
2013-04-28 07:10:00,54.0,51.1,30.19,ENE,68,0.0,18.0,90,0.00,,---,0.00,VWS V13.01,2013-04-28 11:10:00,
2013-04-28 07:15:00,54.1,51.5,30.19,ENE,68,0.0,18.0,91,0.00,,---,0.00,VWS V13.01,2013-04-28 11:15:00,
2013-04-28 07:20:00,54.0,51.1,30.19,ENE,68,0.0,18.0,90,0.00,,---,0.00,VWS V13.01,2013-04-28 11:20:00,
2013-04-28 07:25:00,54.1,51.2,30.21,ENE,68,0.0,18.0,90,0.00,,---,0.00,VWS V13.01,2013-04-28 11:25:00,
2013-04-28 07:30:00,54.1,51.5,30.21,ENE,68,0.0,18.0,91,0.00,,---,0.00,VWS V13.01,2013-04-28 11:30:00,
2013-04-28 07:35:00,54.1,51.2,30.21,ENE,68,0.0,18.0,90,0.00,,---,0.00,VWS V13.01,2013-04-28 11:35:00,
2013-04-28 07:40:00,53.9,50.7,30.21,ENE,68,0.0,18.0,89,0.00,,---,0.00,VWS V13.01,2013-04-28 11:40:00,
2013-04-28 07:45:00,53.9,50.7,30.21,ENE,68,0.0,18.0,89,0.00,,---,0.00,VWS V13.01,2013-04-28 11:45:00,
2013-04-28 07:50:00,53.9,50.7,30.21,ENE,68,0.0,18.0,89,0.00,,---,0.00,VWS V13.01,2013-04-28 11:50:00,
2013-04-28 07:55:00,53.9,50.7,30.22,ENE,68,0.0,18.0,89,0.00,,---,0.01,VWS V13.01,2013-04-28 11:55:00,
2013-04-28 08:00:00,53.9,51.0,30.22,ENE,68,0.0,18.0,90,0.00,,---,0.01,VWS V13.01,2013-04-28 12:00:00,
2013-04-28 08:05:00,54.0,51.1,30.22,ENE,68,0.0,18.0,90,0.00,,---,0.01,VWS V13.01,2013-04-28 12:05:00,
2013-04-28 08:10:00,54.0,51.4,30.22,ENE,68,0.0,18.0,91,0.00,,---,0.01,VWS V13.01,2013-04-28 12:10:00,
2013-04-28 08:15:00,54.0,51.4,30.22,ENE,68,0.0,18.0,91,0.00,,---,0.01,VWS V13.01,2013-04-28 12:15:00,
2013-04-28 08:20:00,53.9,51.0,30.22,ENE,68,0.0,18.0,90,0.00,,---,0.01,VWS V13.01,2013-04-28 12:20:00,
2013-04-28 08:25:00,53.8,50.9,30.22,ENE,68,0.0,18.0,90,0.00,,---,0.01,VWS V13.01,2013-04-28 12:25:00,
2013-04-28 08:30:00,53.8,50.9,30.22,ENE,68,0.0,18.0,90,0.00,,---,0.01,VWS V13.01,2013-04-28 12:30:00,
2013-04-28 08:35:00,53.7,50.2,30.22,ENE,68,0.0,18.0,88,0.00,,---,0.01,VWS V13.01,2013-04-28 12:35:00,
2013-04-28 08:40:00,53.7,50.5,30.21,ENE,68,0.0,18.0,89,0.00,,---,0.01,VWS V13.01,2013-04-28 12:40:00,
2013-04-28 08:45:00,53.6,49.8,30.21,ENE,68,0.0,18.0,87,0.00,,---,0.01,VWS V13.01,2013-04-28 12:45:00,
2013-04-28 08:50:00,53.5,49.4,30.21,ENE,68,0.0,18.0,86,0.00,,---,0.01,VWS V13.01,2013-04-28 12:50:00,
2013-04-28 08:55:00,53.5,49.7,30.21,SW,214,0.0,18.0,87,0.00,,---,0.01,VWS V13.01,2013-04-28 12:55:00,
2013-04-28 09:00:00,53.4,49.3,30.21,SW,214,0.0,18.0,86,0.00,,---,0.01,VWS V13.01,2013-04-28 13:00:00,
2013-04-28 09:05:00,53.5,49.4,30.21,SSW,213,0.0,18.0,86,0.00,,---,0.01,VWS V13.01,2013-04-28 13:05:00,
2013-04-28 09:10:00,53.6,49.2,30.20,SW,214,0.0,18.0,85,0.00,,---,0.01,VWS V13.01,2013-04-28 13:10:00,
2013-04-28 09:15:00,53.8,50.0,30.20,SSW,213,0.0,18.0,87,0.00,,---,0.01,VWS V13.01,2013-04-28 13:15:00,
2013-04-28 09:20:00,53.9,49.5,30.20,SW,214,0.0,18.0,85,0.00,,---,0.01,VWS V13.01,2013-04-28 13:20:00,
2013-04-28 09:25:00,54.2,49.8,30.20,SW,214,0.0,18.0,85,0.00,,---,0.01,VWS V13.01,2013-04-28 13:25:00,
2013-04-28 09:30:00,54.5,49.5,30.20,SW,214,0.0,18.0,83,0.00,,---,0.01,VWS V13.01,2013-04-28 13:30:00,
2013-04-28 09:35:00,54.9,49.8,30.20,SSW,213,0.0,18.0,83,0.00,,---,0.01,VWS V13.01,2013-04-28 13:35:00,
2013-04-28 09:40:00,55.3,49.6,30.20,SSW,200,0.0,18.0,81,0.00,,---,0.01,VWS V13.01,2013-04-28 13:40:00,
2013-04-28 09:45:00,55.7,50.0,30.20,SSW,201,0.0,18.0,81,0.00,,---,0.01,VWS V13.01,2013-04-28 13:45:00,
2013-04-28 09:50:00,56.0,49.6,30.20,ESE,102,0.0,18.0,79,0.00,,---,0.01,VWS V13.01,2013-04-28 13:50:00,
2013-04-28 09:55:00,56.3,49.9,30.20,ESE,103,0.0,18.0,79,0.00,,---,0.01,VWS V13.01,2013-04-28 13:55:00,
2013-04-28 10:00:00,56.4,49.6,30.20,SE,124,0.0,18.0,78,0.00,,---,0.01,VWS V13.01,2013-04-28 14:00:00,
2013-04-28 10:05:00,56.6,49.8,30.20,South,184,0.0,18.0,78,0.00,,---,0.01,VWS V13.01,2013-04-28 14:05:00,
2013-04-28 10:10:00,56.5,48.3,30.20,NW,315,0.0,18.0,74,0.00,,---,0.01,VWS V13.01,2013-04-28 14:10:00,
2013-04-28 10:15:00,56.5,49.0,30.20,SE,135,0.0,18.0,76,0.00,,---,0.01,VWS V13.01,2013-04-28 14:15:00,
2013-04-28 10:20:00,56.6,48.1,30.20,WSW,243,0.0,18.0,73,0.00,,---,0.01,VWS V13.01,2013-04-28 14:20:00,
2013-04-28 10:25:00,56.7,49.6,30.20,SW,236,0.0,18.0,77,0.00,,---,0.01,VWS V13.01,2013-04-28 14:25:00,
2013-04-28 10:30:00,57.0,50.2,30.20,South,187,0.0,18.0,78,0.00,,---,0.01,VWS V13.01,2013-04-28 14:30:00,
2013-04-28 10:35:00,57.2,49.4,30.20,SSW,197,0.0,18.0,75,0.00,,---,0.01,VWS V13.01,2013-04-28 14:35:00,
2013-04-28 10:40:00,57.5,50.4,30.20,SSW,197,0.0,18.0,77,0.00,,---,0.01,VWS V13.01,2013-04-28 14:40:00,
2013-04-28 10:45:00,57.7,50.2,30.20,SSW,197,0.0,18.0,76,0.00,,---,0.01,VWS V13.01,2013-04-28 14:45:00,
2013-04-28 10:50:00,57.7,50.5,30.20,SSE,153,0.0,18.0,77,0.00,,---,0.01,VWS V13.01,2013-04-28 14:50:00,
2013-04-28 10:55:00,57.7,50.2,30.20,SSE,153,0.0,18.0,76,0.00,,---,0.01,VWS V13.01,2013-04-28 14:55:00,
2013-04-28 11:00:00,57.7,49.8,30.20,SSE,152,0.0,18.0,75,0.00,,---,0.01,VWS V13.01,2013-04-28 15:00:00,
2013-04-28 11:05:00,58.0,50.5,30.20,SSE,152,0.0,18.0,76,0.00,,---,0.01,VWS V13.01,2013-04-28 15:05:00,
2013-04-28 11:10:00,58.3,50.8,30.20,SE,145,0.0,18.0,76,0.00,,---,0.01,VWS V13.01,2013-04-28 15:10:00,
2013-04-28 11:15:00,58.5,50.6,30.20,SSW,200,0.0,18.0,75,0.00,,---,0.01,VWS V13.01,2013-04-28 15:15:00,
2013-04-28 11:20:00,58.6,50.3,30.20,SW,233,0.0,18.0,74,0.00,,---,0.01,VWS V13.01,2013-04-28 15:20:00,
2013-04-28 11:25:00,58.6,50.3,30.20,SW,222,0.0,18.0,74,0.00,,---,0.01,VWS V13.01,2013-04-28 15:25:00,
2013-04-28 11:30:00,58.6,50.3,30.20,SW,231,0.0,18.0,74,0.00,,---,0.01,VWS V13.01,2013-04-28 15:30:00,
2013-04-28 11:35:00,58.6,51.1,30.20,SW,231,0.0,18.0,76,0.00,,---,0.01,VWS V13.01,2013-04-28 15:35:00,
2013-04-28 11:40:00,58.7,51.2,30.20,SW,231,0.0,18.0,76,0.00,,---,0.01,VWS V13.01,2013-04-28 15:40:00,
2013-04-28 11:45:00,58.7,50.8,30.20,SE,144,0.0,18.0,75,0.00,,---,0.01,VWS V13.01,2013-04-28 15:45:00,
2013-04-28 11:50:00,58.7,51.2,30.20,SSW,204,0.0,18.0,76,0.00,,---,0.01,VWS V13.01,2013-04-28 15:50:00,
2013-04-28 11:55:00,58.8,51.6,30.19,SSW,203,0.0,18.0,77,0.00,,---,0.01,VWS V13.01,2013-04-28 15:55:00,
2013-04-28 12:00:00,58.8,51.3,30.19,SSW,204,0.0,18.0,76,0.00,,---,0.01,VWS V13.01,2013-04-28 16:00:00,
2013-04-28 12:05:00,58.8,50.9,30.19,South,177,0.0,18.0,75,0.00,,---,0.01,VWS V13.01,2013-04-28 16:05:00,
2013-04-28 12:10:00,58.9,51.7,30.19,SSE,162,0.0,18.0,77,0.00,,---,0.01,VWS V13.01,2013-04-28 16:10:00,
2013-04-28 12:15:00,58.9,52.1,30.19,SSE,162,0.0,18.0,78,0.00,,---,0.01,VWS V13.01,2013-04-28 16:15:00,
2013-04-28 12:20:00,58.8,52.3,30.19,SSE,162,0.0,18.0,79,0.00,,---,0.01,VWS V13.01,2013-04-28 16:20:00,
2013-04-28 12:25:00,58.6,51.4,30.20,SSW,197,0.0,18.0,77,0.00,,---,0.01,VWS V13.01,2013-04-28 16:25:00,
2013-04-28 12:30:00,58.4,52.3,30.20,SSW,197,0.0,18.0,80,0.00,,---,0.01,VWS V13.01,2013-04-28 16:30:00,
2013-04-28 12:35:00,58.0,51.9,30.20,SSW,197,0.0,18.0,80,0.00,,---,0.02,VWS V13.01,2013-04-28 16:35:00,
2013-04-28 12:40:00,57.6,52.2,30.19,SSW,197,0.0,18.0,82,0.00,,---,0.02,VWS V13.01,2013-04-28 16:40:00,
2013-04-28 12:45:00,57.3,52.5,30.19,SSW,197,0.0,18.0,84,0.00,,---,0.03,VWS V13.01,2013-04-28 16:45:00,
2013-04-28 12:50:00,56.9,52.4,30.19,SSW,197,0.0,18.0,85,0.00,,---,0.04,VWS V13.01,2013-04-28 16:50:00,
2013-04-28 12:55:00,56.5,52.7,30.19,SSW,197,0.0,18.0,87,0.00,,---,0.05,VWS V13.01,2013-04-28 16:55:00,
2013-04-28 13:00:00,56.3,52.8,30.19,SSW,197,0.0,18.0,88,0.00,,---,0.06,VWS V13.01,2013-04-28 17:00:00,
2013-04-28 13:05:00,56.2,53.0,30.19,SSW,197,0.0,18.0,89,0.00,,---,0.07,VWS V13.01,2013-04-28 17:05:00,
2013-04-28 13:10:00,56.1,52.9,30.17,SSW,197,0.0,18.0,89,0.00,,---,0.07,VWS V13.01,2013-04-28 17:10:00,
2013-04-28 13:15:00,56.2,53.3,30.17,SSW,197,0.0,18.0,90,0.00,,---,0.08,VWS V13.01,2013-04-28 17:15:00,
2013-04-28 13:20:00,56.4,53.2,30.17,WSW,252,0.0,18.0,89,0.00,,---,0.08,VWS V13.01,2013-04-28 17:20:00,
2013-04-28 13:25:00,56.4,52.9,30.17,WSW,250,0.0,18.0,88,0.00,,---,0.08,VWS V13.01,2013-04-28 17:25:00,
2013-04-28 13:30:00,56.2,53.0,30.17,WSW,250,0.0,18.0,89,0.00,,---,0.08,VWS V13.01,2013-04-28 17:30:00,
2013-04-28 13:35:00,56.1,53.2,30.17,WSW,250,0.0,18.0,90,0.00,,---,0.08,VWS V13.01,2013-04-28 17:35:00,
2013-04-28 13:40:00,56.2,53.3,30.17,WSW,250,0.0,18.0,90,0.00,,---,0.08,VWS V13.01,2013-04-28 17:40:00,
2013-04-28 13:45:00,56.2,53.3,30.17,WSW,250,0.0,18.0,90,0.00,,---,0.08,VWS V13.01,2013-04-28 17:45:00,
2013-04-28 13:50:00,56.2,53.3,30.17,WSW,250,0.0,18.0,90,0.00,,---,0.08,VWS V13.01,2013-04-28 17:50:00,
2013-04-28 13:55:00,56.2,53.3,30.17,WSW,250,0.0,18.0,90,0.00,,---,0.08,VWS V13.01,2013-04-28 17:55:00,
2013-04-28 14:00:00,56.1,53.2,30.17,WSW,250,0.0,18.0,90,0.00,,---,0.08,VWS V13.01,2013-04-28 18:00:00,
2013-04-28 14:05:00,56.0,53.1,30.17,WSW,250,0.0,18.0,90,0.00,,---,0.08,VWS V13.01,2013-04-28 18:05:00,
2013-04-28 14:10:00,56.1,53.5,30.17,WSW,250,0.0,18.0,91,0.00,,---,0.08,VWS V13.01,2013-04-28 18:10:00,
2013-04-28 14:15:00,56.1,53.5,30.17,WSW,250,0.0,18.0,91,0.00,,---,0.08,VWS V13.01,2013-04-28 18:15:00,
2013-04-28 14:20:00,56.2,53.9,30.17,WSW,250,0.0,18.0,92,0.00,,---,0.08,VWS V13.01,2013-04-28 18:20:00,
2013-04-28 14:25:00,56.3,54.0,30.16,WSW,250,0.0,18.0,92,0.00,,---,0.08,VWS V13.01,2013-04-28 18:25:00,
2013-04-28 14:30:00,56.4,54.1,30.16,WSW,250,0.0,18.0,92,0.00,,---,0.08,VWS V13.01,2013-04-28 18:30:00,
2013-04-28 14:35:00,56.4,53.8,30.16,WSW,250,0.0,18.0,91,0.00,,---,0.08,VWS V13.01,2013-04-28 18:35:00,
2013-04-28 14:40:00,56.5,54.2,30.15,WSW,250,0.0,18.0,92,0.00,,---,0.08,VWS V13.01,2013-04-28 18:40:00,
2013-04-28 14:45:00,56.5,54.2,30.15,WSW,250,0.0,18.0,92,0.00,,---,0.08,VWS V13.01,2013-04-28 18:45:00,
2013-04-28 14:50:00,56.7,54.1,30.15,WSW,250,0.0,18.0,91,0.00,,---,0.08,VWS V13.01,2013-04-28 18:50:00,
2013-04-28 14:55:00,56.8,54.2,30.15,WSW,250,0.0,18.0,91,0.00,,---,0.08,VWS V13.01,2013-04-28 18:55:00,
2013-04-28 15:00:00,56.9,54.3,30.15,WSW,250,0.0,18.0,91,0.00,,---,0.08,VWS V13.01,2013-04-28 19:00:00,
2013-04-28 15:05:00,57.0,54.4,30.15,WSW,250,0.0,18.0,91,0.00,,---,0.08,VWS V13.01,2013-04-28 19:05:00,
2013-04-28 15:10:00,57.1,54.5,30.15,WSW,250,0.0,18.0,91,0.00,,---,0.08,VWS V13.01,2013-04-28 19:10:00,
2013-04-28 15:15:00,57.3,54.7,30.14,WSW,250,0.0,18.0,91,0.00,,---,0.08,VWS V13.01,2013-04-28 19:15:00,
2013-04-28 15:20:00,57.5,54.9,30.14,WSW,250,0.0,18.0,91,0.00,,---,0.09,VWS V13.01,2013-04-28 19:20:00,
2013-04-28 15:25:00,57.5,54.9,30.14,WSW,250,0.0,18.0,91,0.00,,---,0.09,VWS V13.01,2013-04-28 19:25:00,
2013-04-28 15:30:00,57.4,54.5,30.15,WSW,250,0.0,18.0,90,0.00,,---,0.09,VWS V13.01,2013-04-28 19:30:00,
2013-04-28 15:35:00,57.3,54.7,30.15,WSW,250,0.0,18.0,91,0.00,,---,0.09,VWS V13.01,2013-04-28 19:35:00,
2013-04-28 15:40:00,57.3,54.7,30.15,WSW,250,0.0,18.0,91,0.00,,---,0.09,VWS V13.01,2013-04-28 19:40:00,
2013-04-28 15:45:00,57.1,54.5,30.15,WSW,250,0.0,18.0,91,0.00,,---,0.10,VWS V13.01,2013-04-28 19:45:00,
2013-04-28 15:50:00,57.1,54.8,30.15,WSW,250,0.0,18.0,92,0.00,,---,0.10,VWS V13.01,2013-04-28 19:50:00,
2013-04-28 15:55:00,57.3,55.3,30.14,WSW,250,0.0,18.0,93,0.00,,---,0.11,VWS V13.01,2013-04-28 19:55:00,
2013-04-28 16:00:00,57.4,55.4,30.14,WSW,250,0.0,18.0,93,0.00,,---,0.12,VWS V13.01,2013-04-28 20:00:00,
2013-04-28 16:05:00,57.4,55.1,30.14,WSW,250,0.0,18.0,92,0.00,,---,0.12,VWS V13.01,2013-04-28 20:05:00,
2013-04-28 16:10:00,57.4,55.1,30.13,WSW,250,0.0,18.0,92,0.00,,---,0.13,VWS V13.01,2013-04-28 20:10:00,
2013-04-28 16:15:00,57.4,55.1,30.13,WSW,250,0.0,18.0,92,0.00,,---,0.14,VWS V13.01,2013-04-28 20:15:00,
2013-04-28 16:20:00,57.2,54.9,30.13,WSW,250,0.0,18.0,92,0.00,,---,0.15,VWS V13.01,2013-04-28 20:20:00,
2013-04-28 16:25:00,57.1,54.8,30.11,WSW,250,0.0,18.0,92,0.00,,---,0.15,VWS V13.01,2013-04-28 20:25:00,
2013-04-28 16:30:00,57.1,55.1,30.11,WSW,250,0.0,18.0,93,0.00,,---,0.16,VWS V13.01,2013-04-28 20:30:00,
2013-04-28 16:35:00,57.1,55.1,30.11,WSW,250,0.0,18.0,93,0.00,,---,0.16,VWS V13.01,2013-04-28 20:35:00,
2013-04-28 16:40:00,57.2,55.2,30.11,WSW,250,0.0,18.0,93,0.00,,---,0.16,VWS V13.01,2013-04-28 20:40:00,
2013-04-28 16:45:00,57.0,55.0,30.11,WSW,252,0.0,18.0,93,0.00,,---,0.17,VWS V13.01,2013-04-28 20:45:00,
2013-04-28 16:50:00,57.0,54.7,30.11,SSW,207,0.0,18.0,92,0.00,,---,0.17,VWS V13.01,2013-04-28 20:50:00,
2013-04-28 16:55:00,56.9,54.6,30.11,SSW,207,0.0,18.0,92,0.00,,---,0.18,VWS V13.01,2013-04-28 20:55:00,
2013-04-28 17:00:00,56.8,54.8,30.11,SSW,208,0.0,18.0,93,0.00,,---,0.19,VWS V13.01,2013-04-28 21:00:00,
2013-04-28 17:05:00,56.6,54.3,30.11,SSW,209,0.0,18.0,92,0.00,,---,0.19,VWS V13.01,2013-04-28 21:05:00,
2013-04-28 17:10:00,56.5,54.5,30.11,SSW,208,0.0,18.0,93,0.00,,---,0.20,VWS V13.01,2013-04-28 21:10:00,
2013-04-28 17:15:00,56.6,54.6,30.11,SSW,208,0.0,18.0,93,0.00,,---,0.20,VWS V13.01,2013-04-28 21:15:00,
2013-04-28 17:20:00,56.5,54.5,30.11,SSW,208,0.0,18.0,93,0.00,,---,0.21,VWS V13.01,2013-04-28 21:20:00,
2013-04-28 17:25:00,56.5,54.5,30.11,SSW,208,0.0,18.0,93,0.00,,---,0.21,VWS V13.01,2013-04-28 21:25:00,
2013-04-28 17:30:00,56.4,54.7,30.11,SSW,208,0.0,18.0,94,0.00,,---,0.21,VWS V13.01,2013-04-28 21:30:00,
2013-04-28 17:35:00,56.3,54.6,30.11,SSW,208,0.0,18.0,94,0.00,,---,0.22,VWS V13.01,2013-04-28 21:35:00,
2013-04-28 17:40:00,56.3,54.6,30.11,SSW,208,0.0,18.0,94,0.00,,---,0.23,VWS V13.01,2013-04-28 21:40:00,
2013-04-28 17:45:00,56.2,54.5,30.10,SSW,208,0.0,18.0,94,0.00,,---,0.23,VWS V13.01,2013-04-28 21:45:00,
2013-04-28 17:50:00,56.2,54.5,30.10,SSW,208,0.0,18.0,94,0.00,,---,0.24,VWS V13.01,2013-04-28 21:50:00,
2013-04-28 17:55:00,56.1,54.4,30.10,SSW,208,0.0,18.0,94,0.00,,---,0.24,VWS V13.01,2013-04-28 21:55:00,
2013-04-28 18:00:00,56.2,54.5,30.10,SSW,209,0.0,18.0,94,0.00,,---,0.25,VWS V13.01,2013-04-28 22:00:00,
2013-04-28 18:05:00,56.1,54.4,30.10,SSW,208,0.0,18.0,94,0.00,,---,0.25,VWS V13.01,2013-04-28 22:05:00,
2013-04-28 18:10:00,56.1,54.4,30.10,SSW,209,0.0,18.0,94,0.00,,---,0.25,VWS V13.01,2013-04-28 22:10:00,
2013-04-28 18:15:00,56.0,54.3,30.10,SSW,209,0.0,18.0,94,0.00,,---,0.26,VWS V13.01,2013-04-28 22:15:00,
2013-04-28 18:20:00,55.9,54.2,30.10,SSW,209,0.0,18.0,94,0.00,,---,0.26,VWS V13.01,2013-04-28 22:20:00,
2013-04-28 18:25:00,56.0,54.3,30.10,SSW,208,0.0,18.0,94,0.00,,---,0.27,VWS V13.01,2013-04-28 22:25:00,
2013-04-28 18:30:00,55.9,54.2,30.09,SSW,209,0.0,18.0,94,0.00,,---,0.27,VWS V13.01,2013-04-28 22:30:00,
2013-04-28 18:35:00,56.0,54.3,30.09,SSW,209,0.0,18.0,94,0.00,,---,0.28,VWS V13.01,2013-04-28 22:35:00,
2013-04-28 18:40:00,56.0,54.3,30.09,SSW,209,0.0,18.0,94,0.00,,---,0.28,VWS V13.01,2013-04-28 22:40:00,
2013-04-28 18:45:00,56.1,54.7,30.08,SSW,209,0.0,18.0,95,0.00,,---,0.28,VWS V13.01,2013-04-28 22:45:00,
2013-04-28 18:50:00,56.1,54.7,30.08,SSW,209,0.0,18.0,95,0.00,,---,0.29,VWS V13.01,2013-04-28 22:50:00,
2013-04-28 18:55:00,56.1,54.7,30.08,SSW,209,0.0,18.0,95,0.00,,---,0.29,VWS V13.01,2013-04-28 22:55:00,
2013-04-28 19:00:00,56.2,54.8,30.08,SSW,208,0.0,18.0,95,0.00,,---,0.29,VWS V13.01,2013-04-28 23:00:00,
2013-04-28 19:05:00,56.2,54.8,30.08,SSW,209,0.0,18.0,95,0.00,,---,0.29,VWS V13.01,2013-04-28 23:05:00,
2013-04-28 19:10:00,56.2,54.5,30.08,SSW,208,0.0,18.0,94,0.00,,---,0.29,VWS V13.01,2013-04-28 23:10:00,
2013-04-28 19:15:00,56.1,54.7,30.09,SSW,208,0.0,18.0,95,0.00,,---,0.29,VWS V13.01,2013-04-28 23:15:00,
2013-04-28 19:20:00,56.1,54.7,30.09,SSW,208,0.0,18.0,95,0.00,,---,0.29,VWS V13.01,2013-04-28 23:20:00,
2013-04-28 19:25:00,56.1,54.7,30.09,SSW,208,0.0,18.0,95,0.00,,---,0.30,VWS V13.01,2013-04-28 23:25:00,
2013-04-28 19:30:00,56.1,54.7,30.09,SSW,208,0.0,18.0,95,0.00,,---,0.30,VWS V13.01,2013-04-28 23:30:00,
2013-04-28 19:35:00,56.1,54.7,30.09,SSW,208,0.0,18.0,95,0.00,,---,0.31,VWS V13.01,2013-04-28 23:35:00,
2013-04-28 19:40:00,56.0,54.6,30.09,SSW,208,0.0,18.0,95,0.00,,---,0.32,VWS V13.01,2013-04-28 23:40:00,
2013-04-28 19:45:00,56.0,54.6,30.08,SSW,208,0.0,18.0,95,0.00,,---,0.32,VWS V13.01,2013-04-28 23:45:00,
2013-04-28 19:50:00,56.0,54.6,30.08,SSW,209,0.0,18.0,95,0.00,,---,0.33,VWS V13.01,2013-04-28 23:50:00,
2013-04-28 19:55:00,56.0,54.6,30.08,SSW,208,0.0,18.0,95,0.00,,---,0.33,VWS V13.01,2013-04-28 23:55:00,
2013-04-28 20:00:00,55.9,54.5,30.08,SSW,208,0.0,18.0,95,0.00,,---,0.34,VWS V13.01,2013-04-29 00:00:00,
2013-04-28 20:05:00,55.9,54.5,30.08,SSW,208,0.0,18.0,95,0.00,,---,0.35,VWS V13.01,2013-04-29 00:05:00,
2013-04-28 20:10:00,55.9,54.5,30.08,SSW,208,0.0,18.0,95,0.00,,---,0.35,VWS V13.01,2013-04-29 00:10:00,
2013-04-28 20:15:00,55.8,54.4,30.09,WSW,245,0.0,18.0,95,0.00,,---,0.36,VWS V13.01,2013-04-29 00:15:00,
2013-04-28 20:20:00,55.8,54.4,30.09,WSW,245,0.0,18.0,95,0.00,,---,0.37,VWS V13.01,2013-04-29 00:20:00,
2013-04-28 20:25:00,55.7,54.3,30.09,WSW,245,0.0,18.0,95,0.00,,---,0.41,VWS V13.01,2013-04-29 00:25:00,
2013-04-28 20:30:00,55.7,54.3,30.09,WSW,245,0.0,18.0,95,0.00,,---,0.42,VWS V13.01,2013-04-29 00:30:00,
2013-04-28 20:35:00,55.5,54.1,30.09,WSW,244,0.0,18.0,95,0.00,,---,0.43,VWS V13.01,2013-04-29 00:35:00,
2013-04-28 20:40:00,55.3,53.9,30.09,WSW,245,0.0,18.0,95,0.00,,---,0.44,VWS V13.01,2013-04-29 00:40:00,
2013-04-28 20:45:00,55.3,53.9,30.09,WSW,245,0.0,18.0,95,0.00,,---,0.44,VWS V13.01,2013-04-29 00:45:00,
2013-04-28 20:50:00,55.2,53.8,30.09,WSW,245,0.0,18.0,95,0.00,,---,0.45,VWS V13.01,2013-04-29 00:50:00,
2013-04-28 20:55:00,55.1,53.7,30.09,WSW,245,0.0,18.0,95,0.00,,---,0.45,VWS V13.01,2013-04-29 00:55:00,
2013-04-28 21:00:00,55.0,53.6,30.10,WSW,245,0.0,18.0,95,0.00,,---,0.45,VWS V13.01,2013-04-29 01:00:00,
2013-04-28 21:05:00,55.0,53.6,30.10,WSW,245,0.0,18.0,95,0.00,,---,0.48,VWS V13.01,2013-04-29 01:05:00,
2013-04-28 21:10:00,54.9,53.5,30.10,WSW,245,0.0,18.0,95,0.00,,---,0.49,VWS V13.01,2013-04-29 01:10:00,
2013-04-28 21:15:00,54.9,53.5,30.10,WSW,245,0.0,18.0,95,0.00,,---,0.50,VWS V13.01,2013-04-29 01:15:00,
2013-04-28 21:20:00,54.7,53.3,30.10,WSW,245,0.0,18.0,95,0.00,,---,0.51,VWS V13.01,2013-04-29 01:20:00,
2013-04-28 21:25:00,54.7,53.3,30.10,WSW,245,0.0,18.0,95,0.00,,---,0.51,VWS V13.01,2013-04-29 01:25:00,
2013-04-28 21:30:00,54.6,53.2,30.09,WSW,245,0.0,18.0,95,0.00,,---,0.52,VWS V13.01,2013-04-29 01:30:00,
2013-04-28 21:35:00,54.5,53.1,30.09,WSW,245,0.0,18.0,95,0.00,,---,0.52,VWS V13.01,2013-04-29 01:35:00,
2013-04-28 21:40:00,54.4,53.0,30.09,SW,236,0.0,18.0,95,0.00,,---,0.53,VWS V13.01,2013-04-29 01:40:00,
2013-04-28 21:45:00,54.4,53.0,30.09,SW,236,0.0,18.0,95,0.00,,---,0.53,VWS V13.01,2013-04-29 01:45:00,
2013-04-28 21:50:00,54.4,53.3,30.09,SW,235,0.0,18.0,96,0.00,,---,0.53,VWS V13.01,2013-04-29 01:50:00,
2013-04-28 21:55:00,54.4,53.3,30.09,NW,305,0.0,18.0,96,0.00,,---,0.54,VWS V13.01,2013-04-29 01:55:00,
2013-04-28 22:00:00,54.3,53.2,30.09,NW,304,0.0,18.0,96,0.00,,---,0.54,VWS V13.01,2013-04-29 02:00:00,
2013-04-28 22:05:00,54.3,53.2,30.09,NW,304,0.0,18.0,96,0.00,,---,0.54,VWS V13.01,2013-04-29 02:05:00,
2013-04-28 22:10:00,54.4,53.3,30.09,NW,304,0.0,18.0,96,0.00,,---,0.54,VWS V13.01,2013-04-29 02:10:00,
2013-04-28 22:15:00,54.4,53.3,30.09,NW,304,0.0,18.0,96,0.00,,---,0.54,VWS V13.01,2013-04-29 02:15:00,
2013-04-28 22:20:00,54.4,53.3,30.09,NW,304,0.0,18.0,96,0.00,,---,0.54,VWS V13.01,2013-04-29 02:20:00,
2013-04-28 22:25:00,54.4,53.3,30.09,NNW,347,0.0,18.0,96,0.00,,---,0.54,VWS V13.01,2013-04-29 02:25:00,
2013-04-28 22:30:00,54.4,53.3,30.09,NNW,347,0.0,18.0,96,0.00,,---,0.54,VWS V13.01,2013-04-29 02:30:00,
2013-04-28 22:35:00,54.4,53.3,30.09,NNW,342,0.0,18.0,96,0.00,,---,0.54,VWS V13.01,2013-04-29 02:35:00,
2013-04-28 22:40:00,54.5,53.4,30.09,NNW,342,0.0,18.0,96,0.00,,---,0.55,VWS V13.01,2013-04-29 02:40:00,
2013-04-28 22:45:00,54.5,53.4,30.09,NNW,342,0.0,18.0,96,0.00,,---,0.55,VWS V13.01,2013-04-29 02:45:00,
2013-04-28 22:50:00,54.5,53.4,30.09,NNW,343,0.0,18.0,96,0.00,,---,0.56,VWS V13.01,2013-04-29 02:50:00,
2013-04-28 22:55:00,54.5,53.4,30.09,NNW,342,0.0,18.0,96,0.00,,---,0.56,VWS V13.01,2013-04-29 02:55:00,
2013-04-28 23:00:00,54.5,53.4,30.08,NNW,342,0.0,18.0,96,0.00,,---,0.57,VWS V13.01,2013-04-29 03:00:00,
2013-04-28 23:05:00,54.5,53.4,30.08,NNW,342,0.0,18.0,96,0.00,,---,0.57,VWS V13.01,2013-04-29 03:05:00,
2013-04-28 23:10:00,54.5,53.4,30.08,NNW,342,0.0,18.0,96,0.00,,---,0.58,VWS V13.01,2013-04-29 03:10:00,
2013-04-28 23:15:00,54.4,53.3,30.07,WNW,298,0.0,18.0,96,0.00,,---,0.58,VWS V13.01,2013-04-29 03:15:00,
2013-04-28 23:20:00,54.4,53.3,30.07,South,176,0.0,18.0,96,0.00,,---,0.59,VWS V13.01,2013-04-29 03:20:00,
2013-04-28 23:25:00,54.4,53.3,30.07,WSW,239,0.0,18.0,96,0.00,,---,0.59,VWS V13.01,2013-04-29 03:25:00,
2013-04-28 23:30:00,54.4,53.3,30.06,East,84,0.0,18.0,96,0.00,,---,0.60,VWS V13.01,2013-04-29 03:30:00,
2013-04-28 23:35:00,54.5,53.4,30.06,SE,145,0.0,18.0,96,0.00,,---,0.60,VWS V13.01,2013-04-29 03:35:00,
2013-04-28 23:40:00,54.5,53.4,30.06,East,99,0.0,18.0,96,0.00,,---,0.60,VWS V13.01,2013-04-29 03:40:00,
2013-04-28 23:45:00,54.6,53.5,30.06,NE,51,0.0,18.0,96,0.00,,---,0.61,VWS V13.01,2013-04-29 03:45:00,
2013-04-28 23:50:00,54.6,53.5,30.06,NE,51,0.0,18.0,96,0.00,,---,0.61,VWS V13.01,2013-04-29 03:50:00,
2013-04-28 23:55:00,54.7,53.6,30.06,West,266,0.0,18.0,96,0.00,,---,0.61,VWS V13.01,2013-04-29 03:55:00,